User: anonymous
Location: Unspecified
(0.0000°N, 0.0000°E)
Time: 17:50:57
(UTC+02:00)
Language:

Cosmos 1315 Rocket - Orbit

View from above orbital plane
View from above orbital plane
View from above satellite
View from above satellite

Ground track
Ground track

The orbit data is extracted from the following two-line orbital elements,

1 12904U 81103B   14272.43311935  .00002976  00000-0  21852-3 0  5939
2 12904 081.1795 326.8553 0030692 085.8660 274.6069 15.02799842343702
Epoch (UTC): 29 September 2014 10:23:41
Eccentricity: 0.0030692
inclination: 81.1795°
perigee height: 537 km
apogee height: 579 km
right ascension of ascending node: 326.8553°
argument of perigee: 85.8660°
revolutions per day: 15.02799842
mean anomaly at epoch: 274.6069°
orbit number at epoch: 34370

The dashed part of the orbit path shows where the satellite is in the earth's shadow,  

DLR